FW7738 Weather Reports


Display with metric or nautical units.
time (UTC)temp
F
wind
direction
speed
MPH
gust
MPH
rain 1hr
in
rain 24hr
in
rain mn
in
humidity
%
barometer
mb
20260509032023 61 352 2.0 4.0 0.00 0.00 0.00 81 1010.5
20260509031019 61 20 2.0 4.0 0.00 0.00 0.00 81 1010.3
20260509030034 61 21 3.0 8.0 0.00 0.00 0.00 81 1010.3
20260509025029 60 18 3.0 7.0 0.00 0.00 0.00 82 1010.5
20260509024044 60 12 3.0 6.0 0.00 0.00 0.00 82 1010.5
20260509023040 60 17 2.0 3.0 0.00 0.00 0.00 82 1010.6
20260509022015 60 355 2.0 2.0 0.00 0.00 0.00 81 1010.6
20260509021031 60 347 2.0 3.0 0.00 0.00 0.00 82 1010.8
20260509020026 60 359 2.0 3.0 0.00 0.00 0.00 83 1010.7
20260509015022 60 6 1.0 3.0 0.00 0.00 0.00 83 1010.8
20260509014016 60 16 0.0 1.0 0.00 0.00 0.00 83 1010.9
20260509013032 60 23 1.0 2.0 0.00 0.00 0.00 82 1011.1
20260509012128 61 23 2.0 4.0 0.00 0.00 0.00 81 1011.0
20260509011023 61 26 3.0 6.0 0.00 0.00 0.00 81 1011.2
20260509010018 61 20 4.0 7.0 0.00 0.00 0.00 82 1011.4
20260509005033 61 21 4.0 6.0 0.00 0.00 0.00 83 1011.5
20260509004029 61 36 2.0 6.0 0.00 0.00 0.00 84 1011.6
20260509003024 61 33 2.0 6.0 0.00 0.00 0.00 85 1011.8
20260509002020 61 21 3.0 6.0 0.00 0.00 0.00 85 1012.0
20260509001035 61 21 3.0 6.0 0.00 0.00 0.00 85 1011.8
20260509000051 61 20 2.0 4.0 0.00 0.00 0.00 85 1011.9
20260508235026 61 22 1.0 4.0 0.00 0.00 0.00 85 1012.1
20260508234021 61 23 1.0 3.0 0.00 0.00 0.00 85 1012.1
20260508233017 61 20 3.0 6.0 0.00 0.00 0.00 85 1012.0
20260508232032 61 29 2.0 6.0 0.00 0.00 0.00 85 1012.1
20260508231028 61 28 3.0 7.0 0.00 0.00 0.00 85 1012.1
20260508230023 61 17 4.0 8.0 0.00 0.00 0.00 86 1012.2
20260508225018 61 23 3.0 6.0 0.00 0.00 0.00 86 1012.2
20260508224033 62 16 3.0 6.0 0.00 0.00 0.00 86 1012.3
20260508223029 62 25 2.0 4.0 0.00 0.00 0.00 86 1012.7
20260508222023 62 29 0.0 2.0 0.00 0.00 0.00 86 1012.6
20260508221039 62 21 2.0 3.0 0.00 0.00 0.00 86 1012.6
20260508220054 62 1 1.0 2.0 0.00 0.00 0.00 86 1012.7
20260508215030 62 10 1.0 3.0 0.00 0.00 0.00 86 1012.6
20260508214026 62 1 1.0 2.0 0.00 0.00 0.00 85 1012.7
20260508213021 62 48 0.0 2.0 0.00 0.00 0.00 85 1012.6
20260508212016 62 70 0.0 1.0 0.00 0.00 0.00 85 1012.6
20260508211032 62 67 0.0 1.0 0.00 0.00 0.00 85 1012.7
20260508210048 62 71 0.0 3.0 0.00 0.00 0.00 85 1012.6
20260508205044 63 77 1.0 2.0 0.00 0.00 0.00 85 1012.6
20260508204020 63 67 0.0 3.0 0.00 0.00 0.00 85 1012.4
20260508203035 62 70 1.0 3.0 0.00 0.00 0.00 85 1012.3
20260508202050 62 84 1.0 4.0 0.00 0.00 0.00 85 1012.4
20260508201025 62 81 1.0 6.0 0.00 0.00 0.00 85 1012.3
20260508200020 62 88 2.0 4.0 0.00 0.00 0.00 85 1012.1
20260508195016 62 92 2.0 3.0 0.00 0.00 0.00 85 1012.0
20260508194031 63 91 2.0 4.0 0.00 0.00 0.00 85 1012.0
20260508193027 63 91 3.0 4.0 0.00 0.00 0.00 85 1011.9
20260508192042 63 96 3.0 6.0 0.00 0.00 0.00 85 1011.6
20260508191038 63 94 4.0 8.0 0.00 0.01 0.00 84 1011.5
20260508190033 63 93 4.0 7.0 0.00 0.04 0.00 84 1011.5
20260508185029 63 89 3.0 7.0 0.00 0.06 0.00 84 1011.4
20260508184024 64 90 5.0 10.0 0.00 0.07 0.00 82 1011.2
20260508183020 64 96 5.0 10.0 0.00 0.09 0.00 81 1011.0
20260508182035 64 90 6.0 14.0 0.00 0.12 0.00 80 1011.0
20260508181030 64 91 7.0 13.0 0.00 0.14 0.00 78 1011.0
20260508180026 65 93 8.0 13.0 0.00 0.21 0.00 77 1011.0
20260508175041 65 83 6.0 13.0 0.00 0.28 0.00 75 1011.0
20260508174016 65 84 5.0 10.0 0.00 0.30 0.00 75 1011.0
20260508173032 65 100 6.0 10.0 0.00 0.32 0.00 73 1011.0
20260508172027 66 116 5.0 9.0 0.00 0.33 0.00 72 1011.0
20260508171043 65 93 7.0 13.0 0.00 0.33 0.00 71 1010.9
20260508170018 65 99 7.0 13.0 0.00 0.33 0.00 71 1010.9
20260508165054 66 104 7.0 11.0 0.00 0.33 0.00 70 1010.9
20260508164029 66 114 6.0 10.0 0.00 0.33 0.00 69 1011.0
20260508163025 66 113 8.0 13.0 0.00 0.33 0.00 70 1011.0
20260508162020 66 94 8.0 13.0 0.00 0.33 0.00 72 1010.9
20260508161016 66 115 7.0 14.0 0.00 0.33 0.00 72 1010.9
20260508160031 65 114 7.0 15.0 0.00 0.33 0.00 75 1010.6
20260508155027 66 121 8.0 15.0 0.00 0.33 0.00 74 1010.5
20260508154023 66 107 8.0 14.0 0.00 0.33 0.00 75 1010.3
20260508153038 66 105 9.0 15.0 0.00 0.33 0.00 72 1010.4
20260508152033 66 97 8.0 16.0 0.00 0.33 0.00 74 1010.3
20260508151029 66 104 8.0 17.0 0.00 0.33 0.00 76 1010.5
20260508150025 67 116 9.0 18.0 0.00 0.33 0.00 73 1010.4
20260508145021 67 119 11.0 17.0 0.00 0.33 0.00 69 1010.7
20260508144015 67 116 10.0 16.0 0.00 0.33 0.00 68 1010.8
20260508143031 69 108 8.0 15.0 0.00 0.33 0.00 65 1011.1
20260508142026 68 62 4.0 8.0 0.00 0.33 0.00 65 1011.2
20260508141042 68 81 2.0 6.0 0.00 0.33 0.00 65 1011.3
20260508140018 67 79 5.0 10.0 0.00 0.33 0.00 68 1011.5
20260508135033 66 74 5.0 10.0 0.00 0.33 0.00 70 1011.6
20260508134029 66 73 5.0 11.0 0.00 0.33 0.00 70 1011.5
20260508133044 65 83 3.0 8.0 0.00 0.33 0.00 70 1011.6
20260508132020 65 51 2.0 4.0 0.00 0.33 0.00 71 1012.0
20260508131035 65 47 2.0 6.0 0.00 0.33 0.00 71 1012.2
20260508130030 65 101 3.0 7.0 0.00 0.33 0.00 71 1012.4
20260508125025 64 82 2.0 6.0 0.00 0.33 0.00 72 1012.2
20260508124021 64 98 2.0 6.0 0.00 0.33 0.00 72 1012.4
20260508123016 64 84 1.0 3.0 0.00 0.33 0.00 72 1012.5
20260508122051 64 93 2.0 6.0 0.00 0.33 0.00 73 1012.5
20260508121027 64 110 2.0 4.0 0.00 0.33 0.00 77 1012.6
20260508120042 64 128 1.0 4.0 0.00 0.33 0.00 76 1012.6
20260508115018 64 128 1.0 3.0 0.00 0.33 0.00 76 1012.5
20260508114033 64 80 0.0 2.0 0.00 0.33 0.00 76 1012.4
20260508113028 64 68 0.0 1.0 0.00 0.33 0.00 76 1012.4
20260508112024 63 86 1.0 2.0 0.00 0.33 0.00 76 1012.3
20260508111019 63 82 2.0 3.0 0.00 0.33 0.00 76 1012.3
20260508110035 63 102 3.0 4.0 0.00 0.33 0.00 76 1012.4
20260508105051 63 91 3.0 6.0 0.00 0.34 0.00 77 1012.5
20260508104026 63 96 3.0 6.0 0.00 0.34 0.00 76 1012.5
20260508103042 64 105 2.0 3.0 0.00 0.34 0.00 75 1012.8
20260508102017 64 108 0.0 2.0 0.00 0.34 0.00 74 1012.9
20260508101032 64 89 1.0 3.0 0.00 0.34 0.00 74 1012.8
20260508100048 63 87 1.0 2.0 0.00 0.34 0.00 74 1012.6
20260508095023 63 91 1.0 4.0 0.00 0.34 0.00 74 1012.5
20260508094019 63 97 3.0 6.0 0.00 0.34 0.00 74 1012.3
20260508093034 64 75 0.0 2.0 0.00 0.34 0.00 71 1012.4
20260508092029 65 108 2.0 6.0 0.00 0.34 0.00 68 1012.6
20260508091044 64 23 0.0 1.0 0.00 0.34 0.00 68 1012.5
20260508090020 63 298 1.0 3.0 0.00 0.34 0.00 69 1012.6
20260508085035 62 279 2.0 4.0 0.00 0.34 0.00 71 1012.5
20260508084030 61 320 1.0 2.0 0.00 0.34 0.00 73 1012.2
20260508083046 60 7 3.0 7.0 0.00 0.34 0.00 75 1011.8
20260508082021 59 309 1.0 3.0 0.00 0.34 0.00 78 1011.9
20260508081016 58 327 2.0 6.0 0.00 0.34 0.00 78 1012.0
20260508080032 58 324 3.0 6.0 0.00 0.34 0.00 78 1012.0
20260508075027 58 293 3.0 6.0 0.00 0.34 0.00 78 1012.1
20260508074022 58 331 3.0 6.0 0.00 0.34 0.00 79 1011.9
20260508073018 57 302 3.0 6.0 0.00 0.34 0.00 79 1012.2
20260508072033 57 301 3.0 6.0 0.00 0.34 0.00 80 1012.1
20260508071029 56 318 3.0 6.0 0.00 0.34 0.00 81 1012.0
20260508070024 56 320 4.0 8.0 0.00 0.34 0.00 82 1012.2
20260508065059 56 286 2.0 4.0 0.00 0.34 0.00 82 1012.1
20260508064055 56 277 1.0 4.0 0.00 0.34 0.00 82 1011.9
20260508063030 55 355 2.0 6.0 0.00 0.34 0.00 82 1011.5
20260508062045 55 297 1.0 4.0 0.00 0.34 0.00 82 1011.6
20260508061021 55 313 2.0 4.0 0.00 0.34 0.00 83 1011.5
20260508060016 55 312 3.0 6.0 0.00 0.34 0.00 82 1011.4
20260508055032 54 299 2.0 6.0 0.00 0.34 0.00 84 1011.4
20260508054027 54 336 2.0 4.0 0.00 0.34 0.00 84 1011.0
20260508053022 54 295 4.0 7.0 0.00 0.34 0.00 85 1011.1
20260508052018 53 279 5.0 8.0 0.00 0.34 0.00 85 1010.9
20260508051034 53 288 4.0 8.0 0.00 0.34 0.00 86 1010.6
20260508050029 53 279 4.0 8.0 0.00 0.34 0.00 86 1010.5
20260508045024 54 272 3.0 8.0 0.00 0.34 0.00 85 1010.5
20260508044020 54 295 1.0 2.0 0.00 0.34 0.00 85 1010.4
20260508043035 54 309 1.0 3.0 0.00 0.34 0.00 85 1010.2
20260508042031 54 327 1.0 2.0 0.00 0.34 0.00 85 1010.4
20260508041046 54 323 0.0 4.0 0.00 0.34 0.00 85 1010.3
20260508040021 54 305 4.0 8.0 0.00 0.34 0.00 85 1010.1
20260508035017 54 303 4.0 10.0 0.00 0.34 0.00 85 1010.1
20260508034033 54 299 4.0 8.0 0.00 0.34 0.00 85 1010.2
20260508033027 54 301 3.0 7.0 0.00 0.34 0.00 84 1010.3